Terminal Aerodrome Forecast
Issued by NWS

Home | Current Version | Previous Version | Graphics & Text | Print | Product List | Glossary On
Versions: 1 2 3 4 5 6 7 8 9 10 11 12 13 14 15 16 17 18 19 20 21 22 23 24 25 26
769
FTUS43 KGRB 201131
TAFCWA
TAF
KCWA 201131Z 2012/2112 14010G15KT P6SM VCTS SCT007 BKN040CB
      WS020/20040KT
      TEMPO 2012/2015 4SM -SHRA BR BKN007
     FM201500 15011G17KT P6SM BKN025
     FM201800 17010G16KT P6SM SCT015 BKN070
     FM201900 18009KT P6SM VCTS BKN015CB
     FM210300 32004KT P6SM BKN045
     FM210600 34004KT 5SM BR SCT012 SCT040
     FM210900 04004KT 2SM BR BKN010=

USA.gov is the U.S. government's official web portal to all federal, state and local government web resources and services.